Location: Izdebno
(52.6670°N, 16.2170°E)
Time: 04:01:07
(UTC+02:00)

A-11 Canister half - Pass Details

Date: 08 February 2023
Orbit: 1526 x 1682 km, 47.3° (Epoch: 24 March)

Event Time Altitude Azimuth Distance (km) Brightness Sun altitude
Rises 08:11:41 0° 271° (W) 4,678 11.0 5.3°
Reaches altitude 10° 08:14:45 10° 268° (W) 3,700 10.6 5.6°
Maximum altitude 08:23:51 61° 191° (SSW) 1,727 9.6 6.8°
Drops below altitude 10° 08:33:09 10° 115° (ESE) 3,778 13.2 7.9°
Sets 08:36:18 0° 112° (ESE) 4,782 13.3 8.3°
